Tracking 18957 objects as of 22-Jan-2018
HD Live streaming from Space Station
objects crossing your sky now

DSAT

Track DSAT now!
10-day predictions
DSAT is classified as:


NORAD ID: 42794
Int'l Code: 2017-036AF
Perigee: 513.1 km
Apogee: 692.2 km
Inclination: 97.6 °
Period: 96.6 minutes
Semi major axis: 6973 km
RCS: Unknown
Launch date: June 23, 2017
Source: Italy (IT)
Launch site: SRIHARIKOTA (SRI)
Uplink (MHz):
Downlink (MHz): 437.505
Beacon (MHz): 437.505
Mode: 4800bps GMSK CW
Call sign: U1-DSAT-U1
Status: Active

aabbcc
Your satellite tracking list
Your tracking list is empty




NASA's NSSDC Master Catalog

Two Line Element Set (TLE):
1 42794U 17036AF  18021.59053728 +.00000295 +00000-0 +31138-4 0  9990
2 42794 097.6139 081.6215 0128396 050.4069 310.8404 14.90766275031886
Source of the keplerian elements: AFSPC